contact:dominique.lefevre@mio.osupytheas.fr, maurice.libes@osupytheas.fr, didier.mallarino@osupytheas.fr
Project:EMSO http://www.emso-fr.org/EMSO-France
Depth: 2436.0 m
Title:EMSO Ligure Ouest : Data MII capteur CSTAR
DateTime,Latitude,Longitude,Instrument_Serial,Reference_Counts,Signal_Counts,Corrected_Signal_raw_counts,Calculated_Beam_c_inverse_meters,Internal_thermistor_counts
DateTime,Latitude,Longitude,Instrument_Serial,Reference_Counts,Signal_Counts,Corrected_Signal_raw_counts,Calculated_Beam_c_inverse_meters,Internal_thermistor_counts
2023-06-09T00:02:06,42.805,6.029,CST-1368DR,4294,4708,11640,01.175,552
2023-06-09T00:05:08,42.805,6.029,CST-1368DR,4294,4709,11642,01.175,552
2023-06-09T00:08:09,42.805,6.029,CST-1368DR,4294,4708,11639,01.176,552
2023-06-09T00:11:11,42.805,6.029,CST-1368DR,4294,4709,11641,01.175,552
2023-06-09T00:14:12,42.805,6.029,CST-1368DR,4294,4710,11645,01.174,552
2023-06-09T00:17:14,42.805,6.029,CST-1368DR,4294,4710,11645,01.174,552
2023-06-09T00:20:16,42.805,6.029,CST-1368DR,4294,4710,11645,01.174,552
2023-06-09T00:23:17,42.805,6.029,CST-1368DR,4294,4710,11645,01.174,552
2023-06-09T00:26:19,42.805,6.029,CST-1368DR,4294,4708,11640,01.175,552
2023-06-09T00:29:20,42.805,6.029,CST-1368DR,4294,4713,11651,01.172,552
2023-06-09T00:32:22,42.805,6.029,CST-1368DR,4294,4710,11645,01.174,552
2023-06-09T00:35:23,42.805,6.029,CST-1368DR,4294,4708,11640,01.175,552
2023-06-09T00:38:25,42.805,6.029,CST-1368DR,4294,4709,11642,01.175,552
2023-06-09T00:41:27,42.805,6.029,CST-1368DR,4294,4713,11653,01.171,552
2023-06-09T00:44:28,42.805,6.029,CST-1368DR,4294,4712,11650,01.172,552
2023-06-09T00:47:30,42.805,6.029,CST-1368DR,4294,4712,11649,01.172,552
2023-06-09T00:50:31,42.805,6.029,CST-1368DR,4294,4712,11648,01.173,552
2023-06-09T00:53:33,42.805,6.029,CST-1368DR,4294,4715,11656,01.170,552
2023-06-09T00:56:35,42.805,6.029,CST-1368DR,4294,4713,11653,01.171,552
2023-06-09T00:59:36,42.805,6.029,CST-1368DR,4294,4713,11653,01.171,552
2023-06-09T01:02:38,42.805,6.029,CST-1368DR,4294,4712,11650,01.172,552
2023-06-09T01:05:39,42.805,6.029,CST-1368DR,4294,4711,11647,01.173,552
2023-06-09T01:08:41,42.805,6.029,CST-1368DR,4294,4713,11652,01.171,552
2023-06-09T01:11:42,42.805,6.029,CST-1368DR,4294,4712,11648,01.173,552
2023-06-09T01:14:44,42.805,6.029,CST-1368DR,4294,4713,11651,01.172,552
2023-06-09T01:17:46,42.805,6.029,CST-1368DR,4294,4711,11647,01.173,552
2023-06-09T01:20:47,42.805,6.029,CST-1368DR,4294,4714,11654,01.171,552
2023-06-09T01:23:49,42.805,6.029,CST-1368DR,4294,4713,11653,01.171,552
2023-06-09T01:26:50,42.805,6.029,CST-1368DR,4294,4712,11650,01.172,552
2023-06-09T01:29:52,42.805,6.029,CST-1368DR,4294,4715,11658,01.169,552
2023-06-09T01:32:53,42.805,6.029,CST-1368DR,4294,4711,11648,01.173,552
2023-06-09T01:35:55,42.805,6.029,CST-1368DR,4294,4714,11654,01.171,552
2023-06-09T01:38:57,42.805,6.029,CST-1368DR,4294,4716,11659,01.169,552
2023-06-09T01:41:58,42.805,6.029,CST-1368DR,4294,4714,11655,01.170,552
2023-06-09T01:45:00,42.805,6.029,CST-1368DR,4294,4714,11655,01.170,552
2023-06-09T01:48:01,42.805,6.029,CST-1368DR,4294,4711,11647,01.173,552
2023-06-09T01:51:03,42.805,6.029,CST-1368DR,4294,4714,11654,01.171,552
2023-06-09T01:54:05,42.805,6.029,CST-1368DR,4294,4712,11649,01.172,552
2023-06-09T01:57:06,42.805,6.029,CST-1368DR,4294,4714,11653,01.171,552
2023-06-09T02:00:08,42.805,6.029,CST-1368DR,4294,4710,11645,01.174,552
2023-06-09T02:03:09,42.805,6.029,CST-1368DR,4294,4711,11646,01.173,552
2023-06-09T02:06:11,42.805,6.029,CST-1368DR,4294,4713,11651,01.172,552
2023-06-09T02:09:12,42.805,6.029,CST-1368DR,4294,4713,11651,01.172,552
2023-06-09T02:12:14,42.805,6.029,CST-1368DR,4294,4712,11650,01.172,552
2023-06-09T02:15:16,42.805,6.029,CST-1368DR,4294,4715,11656,01.170,552
2023-06-09T02:18:17,42.805,6.029,CST-1368DR,4294,4713,11653,01.171,552
2023-06-09T02:21:19,42.805,6.029,CST-1368DR,4294,4712,11650,01.172,552
2023-06-09T02:24:20,42.805,6.029,CST-1368DR,4294,4712,11650,01.172,552
2023-06-09T02:27:22,42.805,6.029,CST-1368DR,4294,4716,11658,01.169,552
2023-06-09T02:30:23,42.805,6.029,CST-1368DR,4294,4714,11655,01.170,552
2023-06-09T02:33:25,42.805,6.029,CST-1368DR,4294,4715,11658,01.169,552
2023-06-09T02:36:27,42.805,6.029,CST-1368DR,4294,4714,11653,01.171,552
2023-06-09T02:39:28,42.805,6.029,CST-1368DR,4294,4715,11657,01.170,552
2023-06-09T02:42:30,42.805,6.029,CST-1368DR,4294,4714,11653,01.171,552
2023-06-09T02:45:31,42.805,6.029,CST-1368DR,4294,4710,11644,01.174,552
2023-06-09T02:48:33,42.805,6.029,CST-1368DR,4294,4713,11653,01.171,552
2023-06-09T02:51:34,42.805,6.029,CST-1368DR,4294,4715,11657,01.170,552
2023-06-09T02:54:36,42.805,6.029,CST-1368DR,4294,4714,11655,01.170,552
2023-06-09T02:57:38,42.805,6.029,CST-1368DR,4294,4716,11659,01.169,552
2023-06-09T03:00:39,42.805,6.029,CST-1368DR,4294,4714,11654,01.171,552
2023-06-09T03:03:41,42.805,6.029,CST-1368DR,4294,4714,11655,01.170,552
2023-06-09T03:06:42,42.805,6.029,CST-1368DR,4294,4716,11660,01.169,552
2023-06-09T03:09:44,42.805,6.029,CST-1368DR,4294,4714,11653,01.171,552
2023-06-09T03:12:46,42.805,6.029,CST-1368DR,4294,4713,11651,01.172,552
2023-06-09T03:15:47,42.805,6.029,CST-1368DR,4294,4718,11664,01.167,552
2023-06-09T03:18:49,42.805,6.029,CST-1368DR,4294,4716,11660,01.169,552
2023-06-09T03:21:50,42.805,6.029,CST-1368DR,4294,4717,11661,01.168,552
2023-06-09T03:24:52,42.805,6.029,CST-1368DR,4294,4716,11659,01.169,552
2023-06-09T03:27:53,42.805,6.029,CST-1368DR,4294,4717,11661,01.168,552
2023-06-09T03:30:55,42.805,6.029,CST-1368DR,4294,4716,11659,01.169,552
2023-06-09T03:33:57,42.805,6.029,CST-1368DR,4294,4717,11662,01.168,552
2023-06-09T03:36:58,42.805,6.029,CST-1368DR,4294,4716,11659,01.169,552
2023-06-09T03:40:00,42.805,6.029,CST-1368DR,4294,4715,11657,01.170,552
2023-06-09T03:43:01,42.805,6.029,CST-1368DR,4294,4716,11660,01.169,552
2023-06-09T03:46:03,42.805,6.029,CST-1368DR,4294,4719,11666,01.166,552
2023-06-09T03:49:04,42.805,6.029,CST-1368DR,4294,4716,11660,01.169,552
2023-06-09T03:52:06,42.805,6.029,CST-1368DR,4294,4715,11657,01.170,552
2023-06-09T03:55:08,42.805,6.029,CST-1368DR,4294,4717,11662,01.168,552
2023-06-09T03:58:09,42.805,6.029,CST-1368DR,4294,4714,11653,01.171,552
2023-06-09T04:01:11,42.805,6.029,CST-1368DR,4294,4719,11667,01.166,552
2023-06-09T04:04:12,42.805,6.029,CST-1368DR,4294,4719,11666,01.166,552
2023-06-09T04:07:14,42.805,6.029,CST-1368DR,4294,4718,11664,01.167,552
2023-06-09T04:10:16,42.805,6.029,CST-1368DR,4294,4717,11662,01.168,552
2023-06-09T04:13:17,42.805,6.029,CST-1368DR,4294,4716,11659,01.169,552
2023-06-09T04:16:19,42.805,6.029,CST-1368DR,4294,4719,11666,01.166,552
2023-06-09T04:19:20,42.805,6.029,CST-1368DR,4294,4717,11661,01.168,552
2023-06-09T04:22:22,42.805,6.029,CST-1368DR,4294,4718,11665,01.167,552
2023-06-09T04:25:23,42.805,6.029,CST-1368DR,4294,4717,11663,01.167,552
2023-06-09T04:28:25,42.805,6.029,CST-1368DR,4294,4719,11666,01.166,552
2023-06-09T04:31:29,42.805,6.029,CST-1368DR,4294,4717,11662,01.168,552
2023-06-09T04:34:31,42.805,6.029,CST-1368DR,4294,4720,11669,01.165,552
2023-06-09T04:37:33,42.805,6.029,CST-1368DR,4294,4715,11657,01.170,552
2023-06-09T04:40:34,42.805,6.029,CST-1368DR,4294,4717,11663,01.167,552
2023-06-09T04:43:36,42.805,6.029,CST-1368DR,4294,4717,11661,01.168,552
2023-06-09T04:46:37,42.805,6.029,CST-1368DR,4294,4716,11659,01.169,552
2023-06-09T04:49:39,42.805,6.029,CST-1368DR,4294,4717,11662,01.168,552
2023-06-09T04:52:40,42.805,6.029,CST-1368DR,4294,4720,11669,01.165,552
2023-06-09T04:55:42,42.805,6.029,CST-1368DR,4294,4718,11664,01.167,552
2023-06-09T04:58:44,42.805,6.029,CST-1368DR,4294,4717,11663,01.167,552
2023-06-09T05:01:45,42.805,6.029,CST-1368DR,4294,4718,11664,01.167,552
2023-06-09T05:04:47,42.805,6.029,CST-1368DR,4294,4719,11666,01.166,552
2023-06-09T05:07:48,42.805,6.029,CST-1368DR,4294,4719,11666,01.166,552
2023-06-09T05:10:50,42.805,6.029,CST-1368DR,4294,4719,11666,01.166,552
2023-06-09T05:13:52,42.805,6.029,CST-1368DR,4294,4719,11668,01.166,552
2023-06-09T05:16:53,42.805,6.029,CST-1368DR,4294,4717,11663,01.167,552
2023-06-09T05:19:55,42.805,6.029,CST-1368DR,4294,4715,11658,01.169,552
2023-06-09T05:22:56,42.805,6.029,CST-1368DR,4294,4716,11658,01.169,552
2023-06-09T05:25:58,42.805,6.029,CST-1368DR,4294,4716,11659,01.169,552
2023-06-09T05:28:59,42.805,6.029,CST-1368DR,4294,4714,11655,01.170,552
2023-06-09T05:32:01,42.805,6.029,CST-1368DR,4294,4719,11666,01.166,552
2023-06-09T05:35:03,42.805,6.029,CST-1368DR,4294,4717,11661,01.168,552
2023-06-09T05:38:04,42.805,6.029,CST-1368DR,4294,4717,11661,01.168,552
2023-06-09T05:41:06,42.805,6.029,CST-1368DR,4294,4717,11663,01.167,552
2023-06-09T05:44:07,42.805,6.029,CST-1368DR,4294,4717,11663,01.167,552
2023-06-09T05:47:09,42.805,6.029,CST-1368DR,4294,4716,11660,01.169,552
2023-06-09T05:50:10,42.805,6.029,CST-1368DR,4294,4715,11656,01.170,552
2023-06-09T05:53:12,42.805,6.029,CST-1368DR,4294,4716,11659,01.169,552
2023-06-09T05:56:14,42.805,6.029,CST-1368DR,4294,4716,11658,01.169,552
2023-06-09T05:59:15,42.805,6.029,CST-1368DR,4294,4717,11661,01.168,552
2023-06-09T06:02:17,42.805,6.029,CST-1368DR,4294,4716,11658,01.169,552
2023-06-09T06:05:18,42.805,6.029,CST-1368DR,4294,4716,11658,01.169,552
2023-06-09T06:08:20,42.805,6.029,CST-1368DR,4294,4715,11658,01.169,552
2023-06-09T06:15:06,42.805,6.029,CST-1368DR,4294,4715,11656,01.170,552
2023-06-09T06:18:08,42.805,6.029,CST-1368DR,4294,4716,11659,01.169,552
2023-06-09T06:21:09,42.805,6.029,CST-1368DR,4294,4715,11657,01.170,552
2023-06-09T06:24:11,42.805,6.029,CST-1368DR,4294,4717,11662,01.168,552
2023-06-09T06:27:12,42.805,6.029,CST-1368DR,4294,4711,11648,01.173,552
2023-06-09T06:30:16,42.805,6.029,CST-1368DR,4294,4715,11656,01.170,552
2023-06-09T06:33:18,42.805,6.029,CST-1368DR,4294,4716,11659,01.169,552
2023-06-09T06:36:19,42.805,6.029,CST-1368DR,4294,4715,11656,01.170,552
2023-06-09T06:39:21,42.805,6.029,CST-1368DR,4294,4716,11659,01.169,552
2023-06-09T06:42:22,42.805,6.029,CST-1368DR,4294,4716,11659,01.169,552
2023-06-09T06:45:24,42.805,6.029,CST-1368DR,4294,4716,11658,01.169,552
2023-06-09T06:48:26,42.805,6.029,CST-1368DR,4294,4717,11663,01.167,552
2023-06-09T06:51:27,42.805,6.029,CST-1368DR,4294,4717,11662,01.168,552
2023-06-09T06:54:29,42.805,6.029,CST-1368DR,4294,4716,11660,01.169,552
2023-06-09T06:57:30,42.805,6.029,CST-1368DR,4294,4716,11659,01.169,552
2023-06-09T07:00:32,42.805,6.029,CST-1368DR,4294,4712,11650,01.172,552
2023-06-09T07:03:33,42.805,6.029,CST-1368DR,4294,4716,11658,01.169,552
2023-06-09T07:06:35,42.805,6.029,CST-1368DR,4294,4716,11658,01.169,552
2023-06-09T07:09:37,42.805,6.029,CST-1368DR,4294,4716,11658,01.169,552
2023-06-09T07:12:38,42.805,6.029,CST-1368DR,4294,4716,11658,01.169,552
2023-06-09T07:15:40,42.805,6.029,CST-1368DR,4294,4714,11654,01.171,552
2023-06-09T07:18:41,42.805,6.029,CST-1368DR,4294,4716,11658,01.169,552
2023-06-09T07:21:43,42.805,6.029,CST-1368DR,4294,4716,11660,01.169,552
2023-06-09T07:24:44,42.805,6.029,CST-1368DR,4294,4715,11657,01.170,552
2023-06-09T07:27:46,42.805,6.029,CST-1368DR,4294,4714,11654,01.171,552
2023-06-09T07:30:48,42.805,6.029,CST-1368DR,4294,4716,11658,01.169,552
2023-06-09T07:33:49,42.805,6.029,CST-1368DR,4294,4716,11658,01.169,552
2023-06-09T07:36:51,42.805,6.029,CST-1368DR,4294,4714,11654,01.171,552
2023-06-09T07:39:52,42.805,6.029,CST-1368DR,4294,4715,11658,01.169,552
2023-06-09T07:42:54,42.805,6.029,CST-1368DR,4294,4716,11659,01.169,552
2023-06-09T07:45:56,42.805,6.029,CST-1368DR,4294,4716,11659,01.169,552
2023-06-09T07:48:57,42.805,6.029,CST-1368DR,4294,4715,11656,01.170,552
2023-06-09T07:51:59,42.805,6.029,CST-1368DR,4294,4713,11651,01.172,552
2023-06-09T07:55:00,42.805,6.029,CST-1368DR,4294,4712,11650,01.172,552
2023-06-09T07:58:02,42.805,6.029,CST-1368DR,4294,4713,11651,01.172,552
2023-06-09T08:01:03,42.805,6.029,CST-1368DR,4294,4710,11645,01.174,552
2023-06-09T08:04:05,42.805,6.029,CST-1368DR,4294,4711,11648,01.173,552
2023-06-09T08:07:07,42.805,6.029,CST-1368DR,4294,4713,11652,01.171,552
2023-06-09T08:10:08,42.805,6.029,CST-1368DR,4294,4712,11650,01.172,552
2023-06-09T08:13:10,42.805,6.029,CST-1368DR,4294,4713,11651,01.172,552
2023-06-09T08:16:11,42.805,6.029,CST-1368DR,4294,4712,11648,01.173,552
2023-06-09T08:19:13,42.805,6.029,CST-1368DR,4294,4713,11653,01.171,552
2023-06-09T08:22:14,42.805,6.029,CST-1368DR,4294,4713,11651,01.172,552
2023-06-09T08:25:16,42.805,6.029,CST-1368DR,4294,4714,11653,01.171,552
2023-06-09T08:28:18,42.805,6.029,CST-1368DR,4294,4712,11650,01.172,552
2023-06-09T08:31:19,42.805,6.029,CST-1368DR,4294,4711,11646,01.173,552
2023-06-09T08:34:21,42.805,6.029,CST-1368DR,4294,4713,11651,01.172,552
2023-06-09T08:37:22,42.805,6.029,CST-1368DR,4294,4712,11650,01.172,552
2023-06-09T08:40:24,42.805,6.029,CST-1368DR,4294,4714,11654,01.171,552
2023-06-09T08:43:26,42.805,6.029,CST-1368DR,4294,4714,11655,01.170,552
2023-06-09T08:46:27,42.805,6.029,CST-1368DR,4294,4711,11648,01.173,552
2023-06-09T08:49:29,42.805,6.029,CST-1368DR,4294,4715,11657,01.170,552
2023-06-09T08:52:30,42.805,6.029,CST-1368DR,4294,4719,11667,01.166,552
2023-06-09T08:55:32,42.805,6.029,CST-1368DR,4294,4715,11657,01.170,552
2023-06-09T08:58:33,42.805,6.029,CST-1368DR,4294,4724,11679,01.162,552
2023-06-09T09:01:35,42.805,6.029,CST-1368DR,4294,4713,11652,01.171,552
2023-06-09T09:04:37,42.805,6.029,CST-1368DR,4294,4714,11653,01.171,552
2023-06-09T09:07:38,42.805,6.029,CST-1368DR,4294,4715,11657,01.170,552
2023-06-09T09:10:40,42.805,6.029,CST-1368DR,4294,4716,11659,01.169,552
2023-06-09T09:13:41,42.805,6.029,CST-1368DR,4294,4715,11656,01.170,552
2023-06-09T09:16:43,42.805,6.029,CST-1368DR,4294,4717,11661,01.168,552
2023-06-09T09:19:45,42.805,6.029,CST-1368DR,4294,4715,11658,01.169,552
2023-06-09T09:22:46,42.805,6.029,CST-1368DR,4294,4715,11657,01.170,552
2023-06-09T09:25:48,42.805,6.029,CST-1368DR,4294,4718,11664,01.167,552
2023-06-09T09:28:49,42.805,6.029,CST-1368DR,4294,4718,11665,01.167,552
2023-06-09T09:31:51,42.805,6.029,CST-1368DR,4294,4716,11660,01.169,552
2023-06-09T09:34:52,42.805,6.029,CST-1368DR,4294,4716,11658,01.169,552
2023-06-09T09:37:54,42.805,6.029,CST-1368DR,4294,4714,11655,01.170,552
2023-06-09T09:40:56,42.805,6.029,CST-1368DR,4294,4716,11658,01.169,552
2023-06-09T09:43:57,42.805,6.029,CST-1368DR,4294,4715,11658,01.169,552
2023-06-09T09:46:59,42.805,6.029,CST-1368DR,4294,4715,11656,01.170,552
2023-06-09T09:50:00,42.805,6.029,CST-1368DR,4294,4715,11657,01.170,552
2023-06-09T09:53:02,42.805,6.029,CST-1368DR,4294,4715,11656,01.170,552
2023-06-09T09:56:03,42.805,6.029,CST-1368DR,4294,4714,11653,01.171,552
2023-06-09T09:59:05,42.805,6.029,CST-1368DR,4294,4715,11656,01.170,552
2023-06-09T10:02:07,42.805,6.029,CST-1368DR,4294,4714,11654,01.171,552
2023-06-09T10:05:08,42.805,6.029,CST-1368DR,4294,4715,11657,01.170,552
2023-06-09T10:08:10,42.805,6.029,CST-1368DR,4294,4716,11660,01.169,552
2023-06-09T10:11:11,42.805,6.029,CST-1368DR,4294,4714,11654,01.171,552
2023-06-09T10:14:13,42.805,6.029,CST-1368DR,4294,4716,11659,01.169,552
2023-06-09T10:17:14,42.805,6.029,CST-1368DR,4294,4717,11661,01.168,552
2023-06-09T10:20:16,42.805,6.029,CST-1368DR,4294,4716,11659,01.169,552
2023-06-09T10:23:18,42.805,6.029,CST-1368DR,4294,4715,11656,01.170,552
2023-06-09T10:26:19,42.805,6.029,CST-1368DR,4294,4715,11657,01.170,552
2023-06-09T10:29:21,42.805,6.029,CST-1368DR,4294,4715,11656,01.170,552
2023-06-09T10:32:22,42.805,6.029,CST-1368DR,4294,4714,11655,01.170,552
2023-06-09T10:35:24,42.805,6.029,CST-1368DR,4294,4715,11658,01.169,552
2023-06-09T10:38:26,42.805,6.029,CST-1368DR,4294,4716,11658,01.169,552
2023-06-09T10:41:27,42.805,6.029,CST-1368DR,4294,4716,11658,01.169,552
2023-06-09T10:44:29,42.805,6.029,CST-1368DR,4294,4715,11656,01.170,552
2023-06-09T10:47:30,42.805,6.029,CST-1368DR,4294,4715,11658,01.169,552
2023-06-09T10:50:32,42.805,6.029,CST-1368DR,4294,4712,11649,01.172,552
2023-06-09T10:53:33,42.805,6.029,CST-1368DR,4294,4715,11656,01.170,552
2023-06-09T10:56:35,42.805,6.029,CST-1368DR,4294,4716,11659,01.169,552
2023-06-09T10:59:37,42.805,6.029,CST-1368DR,4294,4715,11658,01.169,552
2023-06-09T11:02:38,42.805,6.029,CST-1368DR,4294,4713,11653,01.171,552
2023-06-09T11:05:40,42.805,6.029,CST-1368DR,4294,4715,11658,01.169,552
2023-06-09T11:08:41,42.805,6.029,CST-1368DR,4294,4714,11655,01.170,552
2023-06-09T11:11:43,42.805,6.029,CST-1368DR,4294,4715,11656,01.170,552
2023-06-09T11:14:44,42.805,6.029,CST-1368DR,4294,4715,11658,01.169,552
2023-06-09T11:17:46,42.805,6.029,CST-1368DR,4294,4716,11659,01.169,552
2023-06-09T11:20:48,42.805,6.029,CST-1368DR,4294,4715,11658,01.169,552
2023-06-09T11:23:49,42.805,6.029,CST-1368DR,4294,4714,11654,01.171,552
2023-06-09T11:26:51,42.805,6.029,CST-1368DR,4294,4714,11655,01.170,552
2023-06-09T11:29:52,42.805,6.029,CST-1368DR,4294,4713,11653,01.171,552
2023-06-09T11:32:54,42.805,6.029,CST-1368DR,4294,4716,11660,01.169,552
2023-06-09T11:35:56,42.805,6.029,CST-1368DR,4294,4716,11660,01.169,552
2023-06-09T11:38:57,42.805,6.029,CST-1368DR,4294,4715,11658,01.169,552
2023-06-09T11:41:59,42.805,6.029,CST-1368DR,4294,4719,11666,01.166,552
2023-06-09T11:45:00,42.805,6.029,CST-1368DR,4294,4716,11658,01.169,552
2023-06-09T11:48:02,42.805,6.029,CST-1368DR,4294,4713,11651,01.172,552
2023-06-09T11:51:03,42.805,6.029,CST-1368DR,4294,4714,11655,01.170,552
2023-06-09T11:54:05,42.805,6.029,CST-1368DR,4294,4714,11653,01.171,552
2023-06-09T11:57:07,42.805,6.029,CST-1368DR,4294,4711,11647,01.173,552
2023-06-09T12:00:08,42.805,6.029,CST-1368DR,4294,4714,11655,01.170,552
2023-06-09T12:03:10,42.805,6.029,CST-1368DR,4294,4709,11641,01.175,552
2023-06-09T12:06:11,42.805,6.029,CST-1368DR,4294,4713,11652,01.171,552
2023-06-09T12:09:13,42.805,6.029,CST-1368DR,4294,4712,11650,01.172,552
2023-06-09T12:12:14,42.805,6.029,CST-1368DR,4294,4713,11652,01.171,552
2023-06-09T12:15:16,42.805,6.029,CST-1368DR,4294,4710,11645,01.174,552
2023-06-09T12:18:18,42.805,6.029,CST-1368DR,4294,4714,11653,01.171,552
2023-06-09T12:21:19,42.805,6.029,CST-1368DR,4294,4713,11651,01.172,552
2023-06-09T12:24:21,42.805,6.029,CST-1368DR,4294,4715,11658,01.169,552
2023-06-09T12:27:22,42.805,6.029,CST-1368DR,4294,4716,11659,01.169,552
2023-06-09T12:30:25,42.805,6.029,CST-1368DR,4294,4710,11645,01.174,552
2023-06-09T12:33:27,42.805,6.029,CST-1368DR,4294,4712,11650,01.172,552
2023-06-09T12:36:28,42.805,6.029,CST-1368DR,4294,4710,11645,01.174,552
2023-06-09T12:39:30,42.805,6.029,CST-1368DR,4294,4713,11652,01.171,552
2023-06-09T12:42:32,42.805,6.029,CST-1368DR,4294,4712,11650,01.172,552
2023-06-09T12:45:33,42.805,6.029,CST-1368DR,4294,4711,11648,01.173,552
2023-06-09T12:48:35,42.805,6.029,CST-1368DR,4294,4712,11649,01.172,552
2023-06-09T12:51:36,42.805,6.029,CST-1368DR,4294,4712,11650,01.172,552
2023-06-09T12:54:38,42.805,6.029,CST-1368DR,4294,4712,11648,01.173,552
2023-06-09T12:57:40,42.805,6.029,CST-1368DR,4294,4713,11651,01.172,552
2023-06-09T13:00:41,42.805,6.029,CST-1368DR,4294,4712,11650,01.172,552
2023-06-09T13:03:43,42.805,6.029,CST-1368DR,4294,4712,11648,01.173,552
2023-06-09T13:06:44,42.805,6.029,CST-1368DR,4294,4713,11651,01.172,552
2023-06-09T13:09:46,42.805,6.029,CST-1368DR,4294,4709,11642,01.175,552
2023-06-09T13:12:47,42.805,6.029,CST-1368DR,4294,4712,11649,01.172,552
2023-06-09T13:15:49,42.805,6.029,CST-1368DR,4294,4711,11648,01.173,552
2023-06-09T13:18:51,42.805,6.029,CST-1368DR,4294,4709,11641,01.175,552
2023-06-09T13:21:52,42.805,6.029,CST-1368DR,4294,4710,11644,01.174,552
2023-06-09T13:24:54,42.805,6.029,CST-1368DR,4294,4710,11644,01.174,552
2023-06-09T13:27:55,42.805,6.029,CST-1368DR,4294,4708,11640,01.175,552
2023-06-09T13:30:57,42.805,6.029,CST-1368DR,4294,4708,11640,01.175,552
2023-06-09T13:33:58,42.805,6.029,CST-1368DR,4294,4709,11643,01.174,552
2023-06-09T13:37:00,42.805,6.029,CST-1368DR,4294,4707,11637,01.176,552
2023-06-09T13:40:02,42.805,6.029,CST-1368DR,4294,4712,11648,01.173,552
2023-06-09T13:43:03,42.805,6.029,CST-1368DR,4294,4706,11635,01.177,552
2023-06-09T13:46:05,42.805,6.029,CST-1368DR,4294,4709,11641,01.175,552
2023-06-09T13:49:06,42.805,6.029,CST-1368DR,4294,4712,11650,01.172,552
2023-06-09T13:52:08,42.805,6.029,CST-1368DR,4294,4709,11643,01.174,552
2023-06-09T13:55:10,42.805,6.029,CST-1368DR,4294,4709,11641,01.175,552
2023-06-09T13:58:11,42.805,6.029,CST-1368DR,4294,4707,11637,01.176,552
2023-06-09T14:01:13,42.805,6.029,CST-1368DR,4294,4712,11648,01.173,552
2023-06-09T14:04:14,42.805,6.029,CST-1368DR,4294,4712,11649,01.172,552
2023-06-09T14:07:16,42.805,6.029,CST-1368DR,4294,4709,11642,01.175,552
2023-06-09T14:10:17,42.805,6.029,CST-1368DR,4294,4708,11639,01.176,552
2023-06-09T14:13:19,42.805,6.029,CST-1368DR,4294,4711,11646,01.173,552
2023-06-09T14:16:21,42.805,6.029,CST-1368DR,4294,4710,11643,01.174,552
2023-06-09T14:19:22,42.805,6.029,CST-1368DR,4294,4709,11641,01.175,552
2023-06-09T14:22:24,42.805,6.029,CST-1368DR,4294,4710,11645,01.174,552
2023-06-09T14:25:25,42.805,6.029,CST-1368DR,4294,4712,11649,01.172,552
2023-06-09T14:28:27,42.805,6.029,CST-1368DR,4294,4707,11637,01.176,552
2023-06-09T14:31:28,42.805,6.029,CST-1368DR,4294,4710,11643,01.174,552
2023-06-09T14:34:30,42.805,6.029,CST-1368DR,4294,4711,11648,01.173,552
2023-06-09T14:37:32,42.805,6.029,CST-1368DR,4294,4713,11653,01.171,552
2023-06-09T14:40:33,42.805,6.029,CST-1368DR,4294,4711,11646,01.173,552
2023-06-09T14:43:35,42.805,6.029,CST-1368DR,4294,4709,11642,01.175,552
2023-06-09T14:46:36,42.805,6.029,CST-1368DR,4294,4710,11645,01.174,552
2023-06-09T14:49:38,42.805,6.029,CST-1368DR,4294,4714,11653,01.171,552
2023-06-09T14:52:40,42.805,6.029,CST-1368DR,4294,4710,11645,01.174,552
2023-06-09T14:55:41,42.805,6.029,CST-1368DR,4294,4707,11637,01.176,552
2023-06-09T14:58:43,42.805,6.029,CST-1368DR,4294,4708,11640,01.175,552
2023-06-09T15:01:44,42.805,6.029,CST-1368DR,4294,4711,11647,01.173,552
2023-06-09T15:04:46,42.805,6.029,CST-1368DR,4294,4709,11641,01.175,552
2023-06-09T15:07:47,42.805,6.029,CST-1368DR,4294,4709,11642,01.175,552
2023-06-09T15:10:49,42.805,6.029,CST-1368DR,4294,4709,11641,01.175,552
2023-06-09T15:13:51,42.805,6.029,CST-1368DR,4294,4712,11650,01.172,552
2023-06-09T15:16:52,42.805,6.029,CST-1368DR,4294,4709,11642,01.175,552
2023-06-09T15:19:54,42.805,6.029,CST-1368DR,4294,4710,11645,01.174,552
2023-06-09T15:22:55,42.805,6.029,CST-1368DR,4294,4707,11636,01.177,552
2023-06-09T15:25:57,42.805,6.029,CST-1368DR,4294,4709,11642,01.175,552
2023-06-09T15:28:58,42.805,6.029,CST-1368DR,4294,4710,11645,01.174,552
2023-06-09T15:32:00,42.805,6.029,CST-1368DR,4294,4707,11636,01.177,552
2023-06-09T15:35:02,42.805,6.029,CST-1368DR,4294,4708,11640,01.175,552
2023-06-09T15:38:03,42.805,6.029,CST-1368DR,4294,4711,11647,01.173,552
2023-06-09T15:41:05,42.805,6.029,CST-1368DR,4294,4713,11651,01.172,552
2023-06-09T15:44:06,42.805,6.029,CST-1368DR,4294,4712,11649,01.172,552
2023-06-09T15:47:08,42.805,6.029,CST-1368DR,4294,4709,11641,01.175,552
2023-06-09T15:50:10,42.805,6.029,CST-1368DR,4294,4710,11645,01.174,552
2023-06-09T15:53:11,42.805,6.029,CST-1368DR,4294,4711,11647,01.173,552
2023-06-09T15:56:13,42.805,6.029,CST-1368DR,4294,4710,11643,01.174,552
2023-06-09T15:59:14,42.805,6.029,CST-1368DR,4294,4709,11641,01.175,552
2023-06-09T16:02:16,42.805,6.029,CST-1368DR,4294,4706,11634,01.177,552
2023-06-09T16:05:17,42.805,6.029,CST-1368DR,4293,4708,11642,01.175,552
2023-06-09T16:08:19,42.805,6.029,CST-1368DR,4294,4704,11630,01.179,552
2023-06-09T16:11:21,42.805,6.029,CST-1368DR,4294,4708,11640,01.175,552
2023-06-09T16:14:22,42.805,6.029,CST-1368DR,4294,4707,11637,01.176,552
2023-06-09T16:17:24,42.805,6.029,CST-1368DR,4294,4710,11645,01.174,552
2023-06-09T16:20:25,42.805,6.029,CST-1368DR,4294,4711,11646,01.173,552
2023-06-09T16:23:27,42.805,6.029,CST-1368DR,4294,4709,11643,01.174,552
2023-06-09T16:26:28,42.805,6.029,CST-1368DR,4294,4710,11644,01.174,552
2023-06-09T16:29:30,42.805,6.029,CST-1368DR,4294,4709,11642,01.175,552
2023-06-09T16:32:32,42.805,6.029,CST-1368DR,4294,4709,11643,01.174,552
2023-06-09T16:35:33,42.805,6.029,CST-1368DR,4294,4710,11644,01.174,552
2023-06-09T16:38:35,42.805,6.029,CST-1368DR,4294,4712,11649,01.172,552
2023-06-09T16:41:36,42.805,6.029,CST-1368DR,4294,4707,11637,01.176,552